#timestamp,LO_Frequency,Hit,StdDev 
1501002015.3,286047004.5,N,3.9
1501002035.1,286047007.6,N,4.0
1501002055.8,286047003.6,N,4.0
1501002075.7,286047001.8,N,4.0
1501002095.5,286047002.4,N,4.0
1501002115.4,286047000.3,N,4.0
1501002135.2,286047000.2,N,4.0
1501002155.0,286047001.2,N,4.0
1501002155.9,286047001.2,N,4.0
1501002175.8,286046998.4,N,3.9
1501002195.6,286046999.0,N,3.9
1501002215.5,286046998.8,N,3.9
1501002235.3,286046999.6,N,3.8
1501002255.1,286046998.9,N,3.8
1501002275.9,286047000.7,N,3.8
1501002295.7,286046998.3,N,3.8
1501002315.6,286046999.4,N,3.7
1501002335.4,286046998.1,N,3.7
1501002355.2,286046998.2,N,3.7
1501002375.1,286046998.4,N,3.6
1501002376.0,286046998.4,N,3.6
1501002395.8,286046998.7,N,3.5
1501002415.7,286046998.4,N,3.5
1501002435.5,286046998.7,N,3.4
1501002455.3,286046996.8,N,3.4
1501002475.2,286046997.1,N,3.3
1501002495.0,286046999.6,N,3.2
1501002495.9,286046999.6,N,3.2
1501002515.7,286046999.2,N,3.1
1501002535.6,286046999.0,N,3.0
1501002555.4,286046999.3,N,3.0
1501002575.3,286046999.3,N,2.9
1501002595.1,286046996.9,N,2.8
1501002615.8,286046996.5,N,2.7
1501002635.7,286046999.6,N,2.7
1501002655.5,286046996.7,N,2.6
1501002675.4,286046999.2,N,2.5
1501002695.2,286046999.1,N,2.5
1501002715.0,286046999.1,N,2.5
1501002715.9,286046999.1,N,2.4
1501002735.8,286046998.6,N,2.4
1501002755.6,286046999.3,N,2.4
1501002775.5,286047000.8,N,2.3
1501002795.3,286047000.2,N,2.3
1501002815.1,286047000.8,N,2.2
1501002835.9,286047000.8,N,2.2
1501002855.7,286046998.2,N,2.1
1501002875.5,286046998.7,N,2.1
1501002895.4,286047000.3,N,2.1
1501002915.2,286046998.2,N,2.0
1501002935.1,286047000.3,N,1.9
1501002936.0,286047000.3,N,1.9
1501002955.8,286047000.6,N,1.8
1501002975.6,286047000.8,N,1.8
1501002995.5,286047000.9,N,1.8
1501003015.3,286046998.3,N,1.8
1501003035.2,286047000.3,N,1.8
1501003055.9,286047001.0,N,1.8
1501003075.7,286047000.8,N,1.8
1501003095.6,286047000.4,N,1.8
1501003115.4,286047000.3,N,1.7
1501003135.3,286046999.9,N,1.7
1501003155.1,286047002.1,N,1.7
1501003156.0,286682707.6,Y,50896.4
1501003175.8,286047001.4,N,50896.4
1501003195.7,286047001.9,N,50896.4
1501003215.5,286047002.3,N,50896.4
1501003235.3,286047002.2,N,50896.4
1501003255.2,286047002.0,N,50896.3
1501003275.0,286046999.7,N,50896.3
1501003275.9,286046999.7,N,50896.3
1501003295.8,286047002.7,N,50896.3
1501003315.6,286047001.2,N,50896.3
1501003335.4,286046998.9,N,50896.3
1501003355.3,286046999.3,N,50896.3
1501003375.1,286046996.5,N,50896.3
1501003395.9,286046999.4,N,50896.3
1501003415.7,286046999.1,N,50896.3
1501003435.5,286046996.8,N,50896.3
1501003455.4,286046996.6,N,50896.3
1501003475.2,286046999.4,N,50896.3
1501003495.1,286046996.8,N,50896.3
1501003496.0,286046996.8,N,50896.3
1501003515.8,286046997.2,N,50896.3
1501003535.6,286046997.5,N,50896.3
1501003555.5,286046997.4,N,50896.3
1501003575.3,286046996.1,N,50896.3
1501003595.1,286046996.1,N,50896.3
1501003615.9,286046995.9,N,50896.3
1501003635.7,286046993.5,N,50896.3
1501003655.6,286046993.4,N,50896.3
1501003675.4,286046994.5,N,50896.4
1501003695.2,286046994.4,N,50896.4
1501003715.1,286046994.5,N,50896.4
1501003716.0,286046994.5,N,50896.4
1501003735.8,286046994.6,N,50896.4
1501003755.7,286046991.7,N,50896.4
1501003775.5,286046991.8,N,50896.4
1501003795.3,286046994.8,N,50896.4
1501003815.2,286046994.8,N,50896.4
1501003835.0,286046991.8,N,50896.4
1501003835.9,286046991.8,N,50896.4
1501003855.8,286046994.8,N,50896.4
1501003875.6,286046991.9,N,50896.4
1501003895.4,286046990.2,N,50896.4
1501003915.3,286046990.5,N,50896.4
1501003935.1,286046990.4,N,50896.4
1501003955.9,286046992.5,N,50896.4
1501003975.7,286046990.1,N,50896.4
1501003995.5,286046990.7,N,50896.4
1501004015.4,286046993.2,N,50896.4
1501004035.2,286046990.9,N,50896.4
1501004055.0,286046991.0,N,50896.4
1501004056.0,286046991.0,N,50896.4
1501004075.8,286046991.1,N,50896.4
1501004095.6,286046988.5,N,50896.4
1501004115.5,286046988.5,N,50896.4
1501004135.3,286046989.2,N,50896.5
1501004155.1,286046989.9,N,50896.5
1501004175.9,286046987.0,N,50896.5
1501004195.7,286046987.1,N,50896.5
1501004215.6,286046987.6,N,50896.5
1501004235.4,286046985.8,N,50896.5
1501004255.2,286046985.7,N,50896.5
1501004275.1,286046988.3,N,50896.5
1501004276.0,286046988.3,N,50896.5
1501004295.8,286046985.3,N,50896.5
1501004315.7,286046988.1,N,50896.5
1501004335.5,286046986.9,N,50896.5
1501004355.3,286046990.0,N,50896.5
1501004375.2,286046989.2,N,50896.5
1501004395.0,286046989.2,N,50896.5
1501004395.9,286046989.2,N,50896.5
1501004415.7,286046988.7,N,50896.5
1501004435.6,286046988.6,N,50896.6
1501004455.4,286046988.6,N,50896.6
1501004475.3,286046989.3,N,50896.6
1501004495.1,286046989.8,N,50896.6
1501004515.8,286046987.4,N,50896.6
1501004535.7,286046987.0,N,50896.6
1501004555.5,286046986.9,N,50896.6
1501004575.4,286046987.9,N,50896.6
1501004595.2,286046987.1,N,50896.6
1501004615.0,286046987.6,N,50896.6
1501004615.9,286046987.6,N,50896.6
1501004635.8,286046985.3,N,50896.6
1501004655.6,286046985.6,N,50896.6
1501004675.5,286046985.6,N,50896.6
1501004695.3,286046988.3,N,50896.6
1501004715.1,286046987.5,N,50896.6
1501004735.9,286046990.0,N,50896.6
1501004755.7,286046986.9,N,50896.6
1501004775.5,286046987.6,N,50896.7
1501004795.4,286046988.2,N,50896.7
1501004815.2,286046985.6,N,50896.7
1501004835.1,286046987.9,N,50896.7
1501004836.0,286046987.9,N,50896.7
1501004855.8,286046987.9,N,50896.7
1501004875.6,286046986.1,N,50896.7
1501004895.5,286046985.4,N,50896.7
1501004915.3,286046986.1,N,50896.7
1501004935.2,286046985.4,N,50896.7
1501004955.0,286046985.3,N,50896.7
1501004955.9,286046985.3,N,50896.7
1501004975.7,286046985.7,N,50896.7
1501004995.6,286046985.4,N,50896.8
1501005015.4,286046986.2,N,50896.8
1501005035.3,286046985.5,N,50896.8
1501005055.1,286046985.6,N,50896.8
1501005075.8,286046987.9,N,50896.8
1501005095.7,286046988.2,N,50896.8
1501005115.5,286046987.1,N,50896.8
1501005135.4,286046987.8,N,50896.8
1501005155.2,286046987.4,N,50896.8
1501005175.0,286046987.8,N,50896.8
1501005175.9,286046987.8,N,50896.8
1501005195.8,286046988.1,N,50896.8
1501005215.6,286046988.1,N,50896.8
1501005235.5,286046987.3,N,50896.8
1501005255.3,286046990.0,N,50896.8
1501005275.1,286046987.3,N,50896.8
1501005295.9,286046987.2,N,50896.8
1501005315.7,286046989.6,N,50896.9
1501005335.5,286046988.1,N,50896.9
1501005355.4,286046985.3,N,50896.9
1501005375.2,286046987.4,N,50896.9
1501005395.1,286046988.6,N,50896.9
1501005396.0,286046988.6,N,50896.9
1501005415.8,286046988.6,N,50896.9
1501005435.6,286046989.8,N,50896.9
1501005455.5,286046989.8,N,50896.9
1501005475.3,286046988.9,N,50896.9
1501005495.2,286046988.6,N,50896.9
1501005515.9,286046991.4,N,50896.9
1501005535.7,286046990.5,N,50896.9
1501005555.6,286046990.6,N,50896.9
1501005575.4,286046992.7,N,50896.9
1501005595.2,286046992.6,N,50896.9
